Location: Bothwell
(42.3833°S, 147.0000°E)
Time: 20:18:09
(UTC+11:00)

MOZHAYETS 4 - Pass Details

Date: 01 October 2022
Orbit: 659 x 678 km, 98.2° (Epoch: 25 November)

Event Time Altitude Azimuth Distance (km) Brightness Sun altitude
Rises 03:39:26 0° 168° (SSE) 3,041 11.7 -23.2°
Reaches altitude 10° 03:41:40 10° 169° (SSE) 2,122 10.8 -22.9°
Maximum altitude 03:46:19 83° 255° (WSW) 688 7.6 -22.1°
Enters shadow 03:47:27 52° 336° (NNW) 845 7.9 -21.9°
